Weather History for Slayton, MN

Change the Weather History Date:

Sunday, December 29, 2013

  Actual Average (KOTG) Record (KOTG)
Temperature  
Mean Temperature -5 °F -  
Max Temperature 1 °F 22 °F 51 °F (1999)
Min Temperature -11 °F 8 °F -13 °F (1993)
Degree Days  
Heating Degree Days 70    
Moisture  
Dew Point -16 °F    
Average Humidity 65    
Maximum Humidity 81    
Minimum Humidity 53    
Precipitation  
Precipitation 0.00 in - - ()
Sea Level Pressure  
Sea Level Pressure 30.25 in    
Wind  
Wind Speed 18 mph (NW)    
Max Wind Speed 32 mph    
Max Gust Speed 38 mph    
Visibility 10 miles    
Events      
Averages and records for this station are not official NWS values.
T = Trace of Precipitation, MM = Missing Value Source: NWS Daily Summary

Daily Weather History Graph

Daily Weather History Graph

Search for Another Location

Airport:

Trip Planner

Search our weather history database for the weather conditions in past years. The results will help you decide how hot, cold, wet, or windy it might be!

Date:

Astronomy

Dec. 29, 2013 Rise Set
Actual Time 7:57 AM CST 4:53 PM CST
Civil Twilight 7:24 AM CST 5:26 PM CST
Nautical Twilight 6:48 AM CST 6:02 PM CST
Astronomical Twilight 6:12 AM CST 6:37 PM CST
Moon 4:39 AM CST (12/29) 2:34 PM CST (12/29)
Length of Visible Light 10h 01m
Length of Day
8h 55m
Waning Crescent, 11% of the Moon is Illuminated
Dec 29
Waning Crescent
Jan 1
New
Jan 7
First Quarter
Jan 15
Full
Jan 23
Last Quarter

Hourly Weather History & Observations

Time (CST) Temp. Windchill Dew Point Humidity Pressure Visibility Wind Dir Wind Speed Gust Speed Precip Events Conditions
12:14 AM 1.2 °F -22.1 °F -3.5 °F 81% 30.12 in 5.0 mi NNW 24.2 mph 36.8 mph N/A   Haze
12:33 AM 0.1 °F -23.6 °F -4.4 °F 81% 30.14 in 7.0 mi NNW 24.2 mph 34.5 mph N/A   Overcast
12:54 AM -0.9 °F -27.8 °F -5.4 °F 81% 30.15 in 4.0 mi NNW 32.2 mph 38.0 mph N/A   Haze
1:14 AM -1.3 °F -25.0 °F -6.0 °F 81% 30.16 in 5.0 mi NW 23.0 mph 33.4 mph N/A   Haze
1:34 AM -1.8 °F -27.5 °F -6.7 °F 80% 30.16 in 7.0 mi NNW 27.6 mph 34.5 mph N/A   Overcast
1:54 AM -3.8 °F -26.8 °F -8.5 °F 80% 30.18 in 7.0 mi NNW 19.6 mph 31.1 mph N/A   Overcast
2:14 AM -4.9 °F -27.6 °F -9.9 °F 79% 30.18 in 7.0 mi NNW 18.4 mph 29.9 mph N/A   Scattered Clouds
2:34 AM -5.3 °F -31.2 °F -10.7 °F 77% 30.19 in 10.0 mi NNW 25.3 mph 33.4 mph N/A   Clear
2:54 AM -5.3 °F -31.7 °F -10.8 °F 77% 30.19 in 7.0 mi NNW 26.5 mph 35.7 mph N/A   Clear
3:14 AM -6.3 °F -31.7 °F -12.3 °F 75% 30.21 in 10.0 mi NW 23.0 mph 31.1 mph N/A   Clear
3:33 AM -7.6 °F -31.7 °F -13.9 °F 74% 30.22 in 10.0 mi NNW 19.6 mph 35.7 mph N/A   Clear
3:54 AM -7.2 °F -31.8 °F -13.9 °F 73% 30.21 in 10.0 mi NW 20.7 mph 26.5 mph N/A   Clear
4:14 AM -7.8 °F -34.1 °F -15.3 °F 70% 30.22 in 10.0 mi NNW 24.2 mph 31.1 mph N/A   Clear
4:33 AM -8.5 °F -33.5 °F -16.1 °F 70% 30.23 in 10.0 mi NW 20.7 mph 31.1 mph N/A   Clear
4:55 AM -8.7 °F -35.8 °F -17.0 °F 67% 30.24 in 10.0 mi NNW 25.3 mph 31.1 mph N/A   Clear
5:15 AM -8.9 °F -32.1 °F -17.5 °F 66% 30.25 in 10.0 mi NNW 17.3 mph 23.0 mph N/A   Clear
5:34 AM -9.4 °F -35.2 °F -18.4 °F 65% 30.26 in 10.0 mi NW 21.9 mph 27.6 mph N/A   Clear
5:55 AM -9.6 °F -35.5 °F -18.8 °F 64% 30.27 in 10.0 mi NNW 21.9 mph 29.9 mph N/A   Clear
6:14 AM -10.3 °F -38.0 °F -19.3 °F 65% 30.28 in 10.0 mi NNW 25.3 mph 34.5 mph N/A   Clear
6:34 AM -10.3 °F -33.3 °F -19.3 °F 65% 30.27 in 10.0 mi NNW 16.1 mph 21.9 mph N/A   Clear
6:54 AM -10.5 °F -35.5 °F -20.2 °F 62% 30.28 in 10.0 mi NNW 19.6 mph 25.3 mph N/A   Clear
7:14 AM -10.7 °F -37.4 °F -20.4 °F 62% 30.29 in 10.0 mi NNW 23.0 mph 28.8 mph N/A   Clear
7:34 AM -10.8 °F -36.6 °F -21.1 °F 61% 30.29 in 10.0 mi NNW 20.7 mph 29.9 mph N/A   Clear
7:54 AM -11.2 °F -38.2 °F -20.7 °F 63% 30.30 in 10.0 mi NNW 23.0 mph 28.8 mph N/A   Clear
8:14 AM -11.6 °F -36.3 °F -20.2 °F 66% 30.30 in 10.0 mi NNW 18.4 mph 23.0 mph N/A   Clear
8:34 AM -11.2 °F -36.4 °F -20.9 °F 62% 30.31 in 10.0 mi NNW 19.6 mph 26.5 mph N/A   Clear
8:54 AM -11.2 °F -37.0 °F -20.7 °F 63% 30.32 in 10.0 mi NNW 20.7 mph 26.5 mph N/A   Clear
9:15 AM -10.8 °F -34.7 °F -20.7 °F 62% 30.32 in 10.0 mi NNW 17.3 mph 23.0 mph N/A   Clear
9:34 AM -10.3 °F -35.3 °F -20.4 °F 61% 30.33 in 10.0 mi NW 19.6 mph 25.3 mph N/A   Clear
9:54 AM -10.1 °F -33.8 °F -20.7 °F 60% 30.33 in 10.0 mi NNW 17.3 mph 23.0 mph N/A   Clear
10:14 AM -9.4 °F -32.8 °F -20.7 °F 58% 30.34 in 10.0 mi NW 17.3 mph 26.5 mph N/A   Clear
10:34 AM -8.7 °F -29.7 °F -20.4 °F 57% 30.34 in 10.0 mi NNW 13.8 mph 21.9 mph N/A   Clear
10:55 AM -7.6 °F -29.1 °F -19.5 °F 56% 30.35 in 10.0 mi NNW 15.0 mph - N/A   Clear
11:14 AM -7.2 °F -28.6 °F -18.6 °F 58% 30.34 in 10.0 mi NW 15.0 mph - N/A   Clear
11:34 AM -6.9 °F -28.2 °F -18.4 °F 57% 30.34 in 10.0 mi NNW 15.0 mph - N/A   Clear
11:54 AM -6.0 °F -27.0 °F -17.5 °F 58% 30.33 in 10.0 mi NW 15.0 mph 18.4 mph N/A   Clear
12:14 PM -5.3 °F -25.4 °F -16.6 °F 58% 30.32 in 10.0 mi NW 13.8 mph - N/A   Clear
12:35 PM -4.9 °F -24.1 °F -17.0 °F 56% 30.30 in 10.0 mi NNW 12.7 mph 18.4 mph N/A   Clear
12:54 PM -4.5 °F -25.2 °F -17.9 °F 53% 30.30 in 10.0 mi NNW 15.0 mph - N/A   Clear
1:13 PM -4.4 °F -24.2 °F -16.2 °F 57% 30.30 in 10.0 mi NW 13.8 mph - N/A   Clear
1:34 PM -4.2 °F -24.7 °F -16.6 °F 55% 30.30 in 10.0 mi NW 15.0 mph - N/A   Clear
1:54 PM -4.0 °F -24.5 °F -15.7 °F 57% 30.29 in 10.0 mi NNW 15.0 mph - N/A   Clear
2:14 PM -3.5 °F -23.1 °F -14.6 °F 59% 30.29 in 10.0 mi NW 13.8 mph - N/A   Clear
2:34 PM -3.3 °F -23.6 °F -15.2 °F 57% 30.28 in 10.0 mi NW 15.0 mph - N/A   Clear
2:55 PM -3.3 °F -22.8 °F -14.4 °F 59% 30.28 in 10.0 mi NW 13.8 mph - N/A   Clear
3:14 PM -3.3 °F -22.1 °F -14.3 °F 59% 30.28 in 10.0 mi WNW 12.7 mph - N/A   Clear
3:34 PM -4.0 °F -23.0 °F -15.0 °F 59% 30.26 in 10.0 mi WNW 12.7 mph - N/A   Clear
3:54 PM -4.2 °F -20.4 °F -16.2 °F 56% 30.26 in 10.0 mi NW 9.2 mph - N/A   Clear
4:14 PM -4.9 °F -21.3 °F -15.9 °F 59% 30.26 in 10.0 mi WNW 9.2 mph - N/A   Clear
4:34 PM -5.3 °F -20.6 °F -16.1 °F 60% 30.25 in 10.0 mi WNW 8.1 mph - N/A   Clear
4:54 PM -6.5 °F -20.8 °F -16.6 °F 62% 30.25 in 10.0 mi West 6.9 mph - N/A   Clear
5:14 PM -7.4 °F -23.2 °F -16.6 °F 64% 30.25 in 10.0 mi West 8.1 mph - N/A   Clear
5:33 PM -8.3 °F -24.3 °F -16.6 °F 67% 30.24 in 10.0 mi West 8.1 mph - N/A   Clear
5:55 PM -8.9 °F -23.6 °F -17.3 °F 66% 30.24 in 10.0 mi West 6.9 mph - N/A   Clear
6:15 PM -9.0 °F -25.2 °F -17.7 °F 66% 30.24 in 10.0 mi West 8.1 mph - N/A   Clear
6:33 PM -9.4 °F -22.7 °F -17.9 °F 66% 30.24 in 10.0 mi West 5.8 mph - N/A   Clear
6:54 PM -9.6 °F -24.5 °F -18.4 °F 65% 30.23 in 10.0 mi West 6.9 mph - N/A   Clear
7:14 PM -10.1 °F -19.4 °F -18.8 °F 66% 30.23 in 10.0 mi WSW 3.5 mph - N/A   Clear
7:35 PM -11.9 °F -25.7 °F -19.3 °F 70% 30.23 in 10.0 mi WSW 5.8 mph - N/A   Clear
7:54 PM -11.7 °F -25.5 °F -19.3 °F 69% 30.23 in 10.0 mi WSW 5.8 mph - N/A   Clear
8:15 PM -11.2 °F -24.8 °F -19.3 °F 67% 30.22 in 10.0 mi WSW 5.8 mph - N/A   Clear
8:35 PM -11.2 °F -23.0 °F -19.3 °F 67% 30.22 in 10.0 mi WSW 4.6 mph - N/A   Clear
8:55 PM -10.5 °F -22.1 °F -18.9 °F 66% 30.21 in 10.0 mi SW 4.6 mph - N/A   Clear
9:14 PM -10.1 °F -19.4 °F -18.8 °F 66% 30.21 in 10.0 mi SW 3.5 mph - N/A   Clear
9:34 PM -10.8 °F -24.4 °F -18.8 °F 68% 30.21 in 10.0 mi West 5.8 mph - N/A   Clear
9:53 PM -9.6 °F -22.9 °F -18.4 °F 65% 30.20 in 10.0 mi WSW 5.8 mph - N/A   Mostly Cloudy
10:14 PM -9.2 °F -22.5 °F -17.1 °F 68% 30.20 in 10.0 mi WSW 5.8 mph - N/A   Overcast
10:34 PM -7.8 °F -24.8 °F -15.9 °F 68% 30.20 in 10.0 mi WSW 9.2 mph - N/A   Overcast
10:54 PM -6.7 °F -15.5 °F -15.7 °F 65% 30.19 in 10.0 mi SSW 3.5 mph - N/A   Overcast
11:14 PM -5.8 °F -18.4 °F -14.8 °F 65% 30.19 in 10.0 mi SW 5.8 mph - N/A   Overcast
11:34 PM -5.6 °F -14.3 °F -14.3 °F 66% 30.19 in 10.0 mi South 3.5 mph - N/A   Overcast
11:54 PM -5.3 °F - -13.5 °F 67% 30.18 in 10.0 mi Calm Calm - N/A   Overcast